Regional Weather Roundup
Issued by NWS

Home | Current Version | Previous Version | Graphics & Text | Print | Product List | Glossary On
Versions: 1 2 3 4 5 6 7 8 9 10 11 12 13 14 15 16 17 18 19 20 21 22 23 24 25 26 27 28 29 30 31 32 33 34 35 36 37 38 39 40 41 42 43 44 45 46 47 48 49 50
000
ASUS43 KLMK 262202
RWRKY
KENTUCKY REGIONAL WEATHER ROUNDUP
NATIONAL WEATHER SERVICE LOUISVILLE KY
600 PM EDT WED APR 26 2017

NOTE "FAIR" INDICATES FEW OR NO CLOUDS BELOW 12,000 FEET
WITH NO SIGNIFICANT WEATHER AND/OR OBSTRUCTIONS TO VISIBILITY.

KYZ001>023-026-027-061>063-070>075-262300-
WESTERN AND SOUTH CENTRAL KENTUCKY

CITY           SKY/WX    TMP DP  RH WIND       PRES   REMARKS
PADUCAH        CLOUDY    70  56  61 NW10      29.50F
HENDERSON      MOSUNNY   81  60  48 S16       29.51F
OWENSBORO      MOSUNNY   83  58  42 S20G26    29.53F
HOPKINSVILLE   NOT AVBL
BOWLING GREEN  SUNNY     82  55  39 S20G25    29.60F
GLASGOW        NOT AVBL
$$

KYZ024-025-028>034-038-045-046-053-262300-
NORTH CENTRAL KENTUCKY

CITY           SKY/WX    TMP DP  RH WIND       PRES   REMARKS
LOUISVILLE/SDF PTSUNNY   85  53  33 S17G23    29.57F
LOUISVILLE/LOU SUNNY     83  57  41 S13G20    29.57F
FORT KNOX      SUNNY     82  54  37 S16       29.58F
$$

KYZ035>037-039>044-047>052-055>060-089>105-262300-
NORTHEAST KENTUCKY

CITY           SKY/WX    TMP DP  RH WIND       PRES   REMARKS
LEXINGTON      SUNNY     82  50  32 S13G20    29.63F
COVINGTON      PTSUNNY   80  56  43 S16       29.58F
FRANKFORT      CLOUDY    82  46  28 S15G22    29.60F
$$

KYZ054-064>069-076>088-106>120-262300-
SOUTHEAST KENTUCKY

CITY           SKY/WX    TMP DP  RH WIND       PRES   REMARKS
JACKSON        CLOUDY    83  53  35 VRB3      29.68F
LONDON         SUNNY     82  48  30 S12       29.68F
SOMERSET       SUNNY     81  50  34 S12       29.66F
MIDDLESBORO    CLOUDY    82  55  39 SW8       29.70F
MONTICELLO     CLEAR     82  59  45 SE10G17   29.66F
$$





USA.gov is the U.S. government's official web portal to all federal, state and local government web resources and services.